Regional Weather Roundup
Issued by NWS

Home | Current Version | Previous Version | Text Only | Print | Product List | Glossary Off
Versions: 1 2 3 4 5 6 7 8 9 10 11 12 13 14 15 16 17 18 19 20 21 22 23 24 25 26 27 28 29 30 31 32 33 34 35 36 37 38 39 40 41 42 43 44 45 46 47 48 49 50

000
ASUS43 KOAX 230810
RWRNE

WEATHER ROUNDUP FOR NEBRASKA
NATIONAL WEATHER SERVICE OMAHA NE
200 AM CST SUN NOV 23 2014

NOTES: SATELLITE DATA IS BEING USED TO AUGMENT CLOUD COVER ABOVE
       12000 FEET.
       "FAIR" INDICATES FEW OR NO CLOUDS BELOW 12,000 FEET WITH NO
       SIGNIFICANT WEATHER AND/OR OBSTRUCTIONS TO VISIBILITY.

  * THESE STATIONS DO NOT REPORT WEATHER SUCH AS RAIN...SNOW OR FOG.

NEZ001>004-019>022-054>056-230900-
NEBRASKA PANHANDLE

CITY           SKY/WX    TMP DP  RH WIND       PRES   REMARKS
SCOTTSBLUFF    CLOUDY    40  28  62 NW16      29.63R WCI  31
ALLIANCE       CLOUDY    40  24  53 NW26G37   29.58R WCI  29
CHADRON        CLOUDY    39  28  64 W13       29.59R WCI  31
KIMBALL        CLOUDY    41  30  66 N25       29.58R
SIDNEY         CLOUDY    46  28  49 NW22G28   29.59R
$$

NEZ057>060-069>072-079>082-230900-
SOUTHWEST NEBRASKA

CITY           SKY/WX    TMP DP  RH WIND       PRES   REMARKS
NORTH PLATTE   CLOUDY    34  25  69 NW5       29.48F WCI  30
IMPERIAL       CLOUDY    44  19  36 NW10      29.52R
LEXINGTON      CLOUDY    40  33  75 W5        29.46S
MCCOOK         CLOUDY    44  34  67 SW8       29.45F
OGALLALA       CLOUDY    37  26  66 SW6       29.52R WCI  32
$$

NEZ005>010-023>029-035>040-094-230900-
NORTH CENTRAL NEBRASKA

CITY           SKY/WX    TMP DP  RH WIND       PRES   REMARKS
VALENTINE      PTCLDY    43  34  70 W18G24    29.45R
AINSWORTH      PTCLDY    40  35  83 SW7       29.44R
BROKEN BOW     CLOUDY    47  29  49 W9        29.43F
O`NEILL        CLOUDY    46  36  69 S7        29.41F
ORD            CLOUDY    43  35  73 S5        29.43F
THEDFORD       CLEAR     40  32  74 W5        29.48R
$$

NEZ041-046>049-061>064-073>077-083>087-230900-
SOUTH CENTRAL NEBRASKA

CITY           SKY/WX    TMP DP  RH WIND       PRES   REMARKS
AURORA         CLOUDY    53  50  90 S8        29.49F
HASTINGS       CLOUDY    53  48  83 S6        29.49S
HEBRON         CLOUDY    55  49  80 S12       29.50F
HOLDREGE       CLOUDY    46  44  93 S3        29.46F FOG
KEARNEY *      MOCLDY    45  41  87 SE9       29.48F
YORK           CLOUDY    54  50  87 SW9       29.50R
$$

NEZ011>018-030>034-042>045-230900-
NORTHEAST NEBRASKA

CITY           SKY/WX    TMP DP  RH WIND       PRES   REMARKS
NORFOLK        CLOUDY    52  50  93 S13       29.44F FOG
ALBION         CLOUDY    49  47  91 S3        29.44F FOG
BLAIR          CLOUDY    55  52  89 S16G22    29.50F
COLUMBUS *     CLOUDY    54  48  82 S8        29.50F
FREMONT        CLOUDY    55  52  90 S7        29.50F
TEKAMAH        CLOUDY    54  51  90 S10       29.50F
WAYNE          CLOUDY    53  50  92 S10       29.46F
$$

NEZ050>053-065>068-078-088>093-230900-
SOUTHEAST NEBRASKA

CITY           SKY/WX    TMP DP  RH WIND       PRES   REMARKS
LINCOLN        CLOUDY    56  51  84 S12       29.50F
OMAHA EPPLEY   CLOUDY    53  52  96 SE10      29.52F
BEATRICE       CLOUDY    55  50  85 S13       29.52F
FALLS CITY     CLOUDY    54  51  90 S8        29.58F
NEBRASKA CITY  CLOUDY    54  52  92 S18       29.55F
PLATTSMOUTH    CLOUDY    54  51  90 S18       29.53F
$$

NEZ044-045-051>053-067-230900-
OMAHA AREA

CITY           SKY/WX    TMP DP  RH WIND       PRES   REMARKS
OMAHA EPPLEY   CLOUDY    53  52  96 SE10      29.52F
BLAIR          CLOUDY    55  52  89 S16G22    29.50F
FREMONT        CLOUDY    55  52  90 S7        29.50F
MILLARD        CLOUDY    55  52  89 SE8       29.51F
OFFUTT AFB     CLOUDY    55  52  88 S13       29.52F
PLATTSMOUTH    CLOUDY    54  51  90 S18       29.53F
WAHOO          CLOUDY    55  51  86 S9        29.50F
$$



USA.gov is the U.S. government's official web portal to all federal, state and local government web resources and services.